Location: D?uga
(50.2667°N, 19.7833°E)
Time: 05:16:08
(UTC+00:00)

CZ-2C DEB - Visible Passes

Search period start: 08 October 2024 00:00
Search period end: 18 October 2024 00:00
Orbit: 673 x 864 km, 98.7° (Epoch: 07 October)

Date Brightness Start Highest point End Pass type
(mag) Time Alt. Az. Time Alt. Az. Time Alt. Az.
08 Oct ? 03:03:26 10° NNE 03:08:07 37° E 03:12:59 10° SSE visible
09 Oct ? 02:28:21 10° NE 02:32:02 20° E 02:35:48 10° SE visible
09 Oct ? 04:06:29 10° N 04:11:29 69° WNW 04:16:44 10° SSW visible
10 Oct ? 03:30:36 10° NNE 03:35:38 63° ESE 03:40:54 10° S visible
11 Oct ? 02:55:00 10° NNE 02:59:34 32° E 03:04:19 10° SSE visible
12 Oct ? 02:19:57 10° NE 02:23:17 17° E 02:26:41 10° SE visible
12 Oct ? 03:57:43 10° NNE 04:02:50 81° WNW 04:08:11 10° SSW visible
13 Oct ? 03:21:45 10° NNE 03:26:47 53° E 03:32:02 10° S visible
14 Oct ? 02:46:05 10° NE 02:50:31 28° E 02:55:05 10° SSE visible
14 Oct ? 04:24:46 10° N 04:29:44 51° WNW 04:34:54 10° SW visible
15 Oct ? 02:11:10 10° NE 02:14:00 15° E 02:16:54 10° ESE visible
15 Oct ? 03:48:29 10° NNE 03:53:41 86° ESE 03:59:06 10° SSW visible
16 Oct ? 03:12:25 10° NNE 03:17:25 45° E 03:22:37 10° S visible
16 Oct ? 16:15:25 10° WSW 16:16:54 11° W 16:18:23 10° WNW visible
17 Oct ? 02:36:44 10° NE 02:40:57 24° E 02:45:15 10° SE visible
17 Oct ? 04:15:08 10° N 04:20:16 61° WNW 04:25:37 10° SSW visible
